Weather Data

Pearl Creek Farm: 8878 N Farm Road 75, Walnut Grove MO 65770

<== Previous Day (Tuesday 29 Mar 2011) | Next Day (Thursday 31 Mar 2011) ==>

Summary Precipitation Data For Wednesday 30 March 2011

ElementValueUnits
Precipitation0.04"
Notes(none)
SourcePearl Creek Farm

Summary Temperature Data For Wednesday 30 March 2011

ElementValueUnits
High Temperature42 oF
Low Temperature35 oF
Average Temperature38 oF
High Humidity90 %
Low Humidity77 %
Average Humidity85 %
SourcePearl Creek Farm

Detail Temperature Data For Wednesday 30 March 2011

Date / TimeTemp (F)RH (%)Dew Pt (F)Report Date / TimeSource
2011-03-30 00:00:00 40 81 34.5 2011-05-13 22:19:16 Pearl Creek Farm
2011-03-30 00:30:00 40 81 34.5 2011-05-13 22:19:16 Pearl Creek Farm
2011-03-30 01:00:00 39 82 33.8 2011-05-13 22:19:16 Pearl Creek Farm
2011-03-30 01:30:00 39 83 34.3 2011-05-13 22:19:16 Pearl Creek Farm
2011-03-30 02:00:00 38 85 33.9 2011-05-13 22:19:16 Pearl Creek Farm
2011-03-30 02:30:00 38 87 34.5 2011-05-13 22:19:16 Pearl Creek Farm
2011-03-30 03:00:00 37 88 33.8 2011-05-13 22:19:16 Pearl Creek Farm
2011-03-30 03:30:00 37 88 33.8 2011-05-13 22:19:16 Pearl Creek Farm
2011-03-30 04:00:00 36 89 32.9 2011-05-13 22:19:16 Pearl Creek Farm
2011-03-30 04:30:00 36 89 32.9 2011-05-13 22:19:16 Pearl Creek Farm
2011-03-30 05:00:00 36 89 33.1 2011-05-13 22:19:16 Pearl Creek Farm
2011-03-30 05:30:00 36 89 33.1 2011-05-13 22:19:16 Pearl Creek Farm
2011-03-30 06:00:00 36 89 33.1 2011-05-13 22:19:16 Pearl Creek Farm
2011-03-30 06:30:00 35 90 32.2 2011-05-13 22:19:16 Pearl Creek Farm
2011-03-30 07:00:00 36 89 33.1 2011-05-13 22:19:16 Pearl Creek Farm
2011-03-30 07:30:00 36 89 32.9 2011-05-13 22:19:16 Pearl Creek Farm
2011-03-30 08:00:00 36 89 32.9 2011-05-13 22:19:16 Pearl Creek Farm
2011-03-30 08:30:00 35 89 32.0 2011-05-13 22:19:16 Pearl Creek Farm
2011-03-30 09:00:00 35 89 32.0 2011-05-13 22:19:16 Pearl Creek Farm
2011-03-30 09:30:00 35 89 32.0 2011-05-13 22:19:16 Pearl Creek Farm
2011-03-30 10:00:00 35 89 32.0 2011-05-13 22:19:16 Pearl Creek Farm
2011-03-30 10:30:00 36 88 32.8 2011-05-13 22:19:16 Pearl Creek Farm
2011-03-30 11:00:00 36 88 32.7 2011-05-13 22:19:16 Pearl Creek Farm
2011-03-30 11:30:00 36 88 32.7 2011-05-13 22:19:16 Pearl Creek Farm
2011-03-30 12:00:00 37 88 33.8 2011-05-13 22:19:16 Pearl Creek Farm
2011-03-30 12:30:00 37 88 33.8 2011-05-13 22:19:16 Pearl Creek Farm
2011-03-30 13:00:00 37 88 33.6 2011-05-13 22:19:16 Pearl Creek Farm
2011-03-30 13:30:00 37 87 33.5 2011-05-13 22:19:16 Pearl Creek Farm
2011-03-30 14:00:00 38 87 34.3 2011-05-13 22:19:16 Pearl Creek Farm
2011-03-30 14:30:00 39 85 34.7 2011-05-13 22:19:16 Pearl Creek Farm
2011-03-30 15:00:00 40 84 35.6 2011-05-13 22:19:16 Pearl Creek Farm
2011-03-30 15:30:00 40 84 35.4 2011-05-13 22:19:16 Pearl Creek Farm
2011-03-30 16:00:00 41 82 35.9 2011-05-13 22:19:16 Pearl Creek Farm
2011-03-30 16:30:00 42 79 36.0 2011-05-13 22:19:16 Pearl Creek Farm
2011-03-30 17:00:00 42 80 36.1 2011-05-13 22:19:16 Pearl Creek Farm
2011-03-30 17:30:00 42 79 36.0 2011-05-13 22:19:16 Pearl Creek Farm
2011-03-30 18:00:00 42 78 35.7 2011-05-13 22:19:16 Pearl Creek Farm
2011-03-30 18:30:00 42 78 35.7 2011-05-13 22:19:16 Pearl Creek Farm
2011-03-30 19:00:00 42 78 35.7 2011-05-13 22:19:16 Pearl Creek Farm
2011-03-30 19:30:00 42 77 35.2 2011-05-13 22:19:16 Pearl Creek Farm
2011-03-30 20:00:00 42 77 35.2 2011-05-13 22:19:16 Pearl Creek Farm
2011-03-30 20:30:00 41 78 34.7 2011-05-13 22:19:16 Pearl Creek Farm
2011-03-30 21:00:00 41 79 35.0 2011-05-13 22:19:16 Pearl Creek Farm
2011-03-30 21:30:00 41 80 35.2 2011-05-13 22:19:16 Pearl Creek Farm
2011-03-30 22:00:00 41 81 35.6 2011-05-13 22:19:16 Pearl Creek Farm
2011-03-30 22:30:00 41 82 35.9 2011-05-13 22:19:16 Pearl Creek Farm
2011-03-30 23:00:00 40 84 35.4 2011-05-13 22:19:16 Pearl Creek Farm
2011-03-30 23:30:00 40 84 35.6 2011-05-13 22:19:16 Pearl Creek Farm

A total of 48 rows are displayed.